Вернуться в каталог

STARLINK-3874

АктивенСвязьVLEO
NORAD 52365·PAYLOAD·🇺🇸 United States

Запущен Apr 29, 2022 с Cape Canaveral Space Force Station

Loading…

Ближайшие Пролёты (ближайшие 24 часа)

TLE

СвежийSource: CelesTrak SupGP

Эпоха: Sep 15, 2026, 01:59 UTC

1 52365C 22045AL  26258.08312500 -.00053302  00000+0 -15750-2 0  2588
2 52365  53.1596  50.6995 0001134  84.1707  75.2934 15.34414227    16

Отслеживайте STARLINK-3874 в реальном времени с AllMySat

Download on the App Store